STARLINK-32202 (60595 NORAD) Tracking and Keplerian Element Data

This shows tracking and keplerian element data for the satellite.

Feedback or suggestion? Click here.




ElementValue
Catalog60595
NameSTARLINK-32202
Epoch Orbit944
Epoch Day286.41238734
Epoch Year2024
RAAN172.0463
Inclination53.1592
Eccentricity0.0001335
Argument of Perigee111.0505
Mean Anonmoly249.0643
Mean Motion15.39614114
Decay Rate1.827E-05
L11 60595U 24150N 24286.41238734 .00001827 00000+0 55659-4 0 9992
L22 60595 53.1592 172.0463 0001335 111.0505 249.0643 15.39614114 9440



Live tracking and technical data element details for STARLINK-32202 (NORAD 60595). STARLINK-32202 can be tracked NOW for your location showing map with azimuth and elevation plus other details from your city location.







IsCatalogInMostPopularTable: catalog: 60595, numindb: 8
Update: records affected: 1



GetName: 60595 STARLINK-32202

Hit Count: updated at: Wed, 04 Dec 2024 18:16:17 GMT